YV2183 SVBC-SVCS

Flight info

Callsign YV2183
Flight time 1h 4m
Altitude 10000
Route GEMAP2 W14 MASPU W17A TUY
Aircraft P28U/L-SDGRY/S

Departure

Time 2026-04-25 14:18
Airport General José Antonio Anzoategui International Airport (SVBC)

Arrival

Time 2026-04-25 15:23
Airport Caracas Óscar Machado Zuloaga International Airport (SVCS)
Time Latitude Longitude Altitude Speed Heading
2026-04-25 13:55 10.11149 -64.68651 26 ft 0 kts 103°
2026-04-25 13:58 10.11148 -64.68650 26 ft 1 kts 103°
2026-04-25 13:59 10.11127 -64.68648 29 ft 7 kts 212°
2026-04-25 13:59 10.11130 -64.68711 26 ft 11 kts 282°
2026-04-25 13:59 10.11140 -64.68792 23 ft 11 kts 240°
2026-04-25 13:59 10.11077 -64.68828 25 ft 11 kts 205°
2026-04-25 14:00 10.11003 -64.68857 25 ft 12 kts 193°
2026-04-25 14:00 10.10913 -64.68876 26 ft 14 kts 192°
2026-04-25 14:00 10.10816 -64.68899 26 ft 14 kts 193°
2026-04-25 14:00 10.10719 -64.68899 26 ft 15 kts 148°
2026-04-25 14:01 10.10629 -64.68835 26 ft 16 kts 145°
2026-04-25 14:01 10.10553 -64.68779 28 ft 12 kts 143°
2026-04-25 14:01 10.10492 -64.68731 29 ft 10 kts 142°
2026-04-25 14:01 10.10439 -64.68689 30 ft 9 kts 142°
2026-04-25 14:02 10.10392 -64.68653 29 ft 8 kts 142°
2026-04-25 14:02 10.10352 -64.68622 30 ft 6 kts 142°
2026-04-25 14:02 10.10322 -64.68598 30 ft 5 kts 142°
2026-04-25 14:02 10.10314 -64.68592 30 ft 4 kts 142°
2026-04-25 14:03 10.10269 -64.68557 33 ft 9 kts 142°
2026-04-25 14:03 10.10216 -64.68516 33 ft 9 kts 142°
2026-04-25 14:03 10.10165 -64.68476 33 ft 9 kts 142°
2026-04-25 14:03 10.10116 -64.68438 33 ft 9 kts 142°
2026-04-25 14:04 10.10072 -64.68402 33 ft 8 kts 141°
2026-04-25 14:04 10.10060 -64.68409 33 ft 4 kts 337°
2026-04-25 14:04 10.10073 -64.68415 33 ft 0 kts 321°
2026-04-25 14:17 10.10092 -64.68430 33 ft 16 kts 323°
2026-04-25 14:17 10.10319 -64.68605 32 ft 64 kts 323°
2026-04-25 14:17 10.10775 -64.68959 56 ft 95 kts 323°
2026-04-25 14:18 10.11320 -64.69380 182 ft 101 kts 324°
2026-04-25 14:18 10.11885 -64.69801 377 ft 104 kts 322°
2026-04-25 14:18 10.12470 -64.70245 608 ft 106 kts 322°
2026-04-25 14:18 10.13066 -64.70700 836 ft 107 kts 323°
2026-04-25 14:19 10.13659 -64.71143 1085 ft 106 kts 323°
2026-04-25 14:19 10.14265 -64.71588 1314 ft 108 kts 324°
2026-04-25 14:19 10.14872 -64.72049 1527 ft 110 kts 320°
2026-04-25 14:19 10.15436 -64.72552 1785 ft 104 kts 305°
2026-04-25 14:20 10.15670 -64.73246 1971 ft 104 kts 267°
2026-04-25 14:20 10.15585 -64.73728 2077 ft 106 kts 246°
2026-04-25 14:20 10.15002 -64.74502 2384 ft 103 kts 221°
2026-04-25 14:20 10.14433 -64.74981 2552 ft 109 kts 217°
2026-04-25 14:21 10.13831 -64.75424 2800 ft 105 kts 210°
2026-04-25 14:21 10.13207 -64.75860 2938 ft 114 kts 212°
2026-04-25 14:21 10.12562 -64.76349 3136 ft 115 kts 214°
2026-04-25 14:21 10.11950 -64.76820 3365 ft 111 kts 213°
2026-04-25 14:22 10.11334 -64.77297 3526 ft 111 kts 213°
2026-04-25 14:22 10.10892 -64.77947 3686 ft 116 kts 250°
2026-04-25 14:22 10.10859 -64.78770 3856 ft 117 kts 270°
2026-04-25 14:22 10.10856 -64.79594 4009 ft 117 kts 267°
2026-04-25 14:23 10.10863 -64.80427 4153 ft 118 kts 268°
2026-04-25 14:23 10.10866 -64.81258 4326 ft 117 kts 268°
2026-04-25 14:23 10.10871 -64.82089 4477 ft 118 kts 268°
2026-04-25 14:23 10.10877 -64.82928 4644 ft 119 kts 268°
2026-04-25 14:24 10.10879 -64.83768 4806 ft 119 kts 268°
2026-04-25 14:24 10.10886 -64.84610 4981 ft 119 kts 267°
2026-04-25 14:24 10.10860 -64.85452 5143 ft 120 kts 266°
2026-04-25 14:24 10.10839 -64.86303 5295 ft 121 kts 265°
2026-04-25 14:25 10.10818 -64.87148 5450 ft 121 kts 266°
2026-04-25 14:25 10.10791 -64.88002 5597 ft 121 kts 266°
2026-04-25 14:25 10.10765 -64.88858 5733 ft 122 kts 266°
2026-04-25 14:25 10.10747 -64.89428 5827 ft 122 kts 266°
2026-04-25 14:26 10.10706 -64.90579 6005 ft 122 kts 266°
2026-04-25 14:26 10.10677 -64.91438 6133 ft 122 kts 265°
2026-04-25 14:26 10.10643 -64.92304 6246 ft 123 kts 266°
2026-04-25 14:26 10.10614 -64.93175 6375 ft 123 kts 265°
2026-04-25 14:27 10.10583 -64.94044 6500 ft 123 kts 266°
2026-04-25 14:27 10.10550 -64.94912 6626 ft 123 kts 266°
2026-04-25 14:27 10.10516 -64.95786 6738 ft 124 kts 265°
2026-04-25 14:27 10.10486 -64.96645 6848 ft 124 kts 266°
2026-04-25 14:28 10.10454 -64.97519 6960 ft 124 kts 266°
2026-04-25 14:28 10.10424 -64.98393 7069 ft 124 kts 266°
2026-04-25 14:28 10.10395 -64.99270 7184 ft 124 kts 265°
2026-04-25 14:28 10.10365 -65.00148 7285 ft 125 kts 266°
2026-04-25 14:29 10.10339 -65.01028 7409 ft 125 kts 266°
2026-04-25 14:29 10.10309 -65.01906 7526 ft 125 kts 265°
2026-04-25 14:29 10.10280 -65.02788 7632 ft 125 kts 266°
2026-04-25 14:29 10.10250 -65.03670 7732 ft 125 kts 265°
2026-04-25 14:30 10.10223 -65.04554 7840 ft 125 kts 266°
2026-04-25 14:30 10.10162 -65.06330 8013 ft 126 kts 266°
2026-04-25 14:30 10.10132 -65.07211 8086 ft 126 kts 266°
2026-04-25 14:31 10.10103 -65.08099 8149 ft 126 kts 266°
2026-04-25 14:31 10.10073 -65.09002 8220 ft 126 kts 266°
2026-04-25 14:31 10.10042 -65.09883 8281 ft 127 kts 266°
2026-04-25 14:31 10.10012 -65.10774 8328 ft 126 kts 266°
2026-04-25 14:32 10.09979 -65.11652 8441 ft 120 kts 265°
2026-04-25 14:32 10.09946 -65.12490 8491 ft 120 kts 265°
2026-04-25 14:32 10.09919 -65.13337 8621 ft 119 kts 265°
2026-04-25 14:32 10.09895 -65.14175 8749 ft 119 kts 266°
2026-04-25 14:33 10.09870 -65.15015 8870 ft 119 kts 265°
2026-04-25 14:33 10.09847 -65.15858 8987 ft 119 kts 266°
2026-04-25 14:33 10.09821 -65.16703 9094 ft 120 kts 265°
2026-04-25 14:33 10.09795 -65.17549 9219 ft 120 kts 266°
2026-04-25 14:34 10.09769 -65.18393 9332 ft 120 kts 266°
2026-04-25 14:34 10.09745 -65.19240 9445 ft 120 kts 266°
2026-04-25 14:34 10.09718 -65.20086 9551 ft 120 kts 265°
2026-04-25 14:34 10.09694 -65.20926 9631 ft 121 kts 266°
2026-04-25 14:35 10.09672 -65.21775 9713 ft 120 kts 266°
2026-04-25 14:35 10.09650 -65.22635 9780 ft 120 kts 266°
2026-04-25 14:35 10.09629 -65.23472 9837 ft 120 kts 266°
2026-04-25 14:35 10.09608 -65.24322 9876 ft 121 kts 266°
2026-04-25 14:36 10.09588 -65.25177 9915 ft 121 kts 266°
2026-04-25 14:36 10.09566 -65.26029 9951 ft 121 kts 266°
2026-04-25 14:36 10.09548 -65.26888 9960 ft 123 kts 266°
2026-04-25 14:36 10.09527 -65.27764 9970 ft 125 kts 266°
2026-04-25 14:37 10.09497 -65.28654 9973 ft 127 kts 266°
2026-04-25 14:37 10.09468 -65.29556 9977 ft 129 kts 267°
2026-04-25 14:37 10.09435 -65.30472 9976 ft 131 kts 266°
2026-04-25 14:37 10.09402 -65.31427 9976 ft 141 kts 267°
2026-04-25 14:38 10.09368 -65.32456 9979 ft 150 kts 267°
2026-04-25 14:38 10.09331 -65.33521 9981 ft 156 kts 267°
2026-04-25 14:38 10.09291 -65.34632 9976 ft 159 kts 267°
2026-04-25 14:38 10.09248 -65.35764 9975 ft 162 kts 267°
2026-04-25 14:39 10.09202 -65.36914 9973 ft 163 kts 267°
2026-04-25 14:39 10.09155 -65.38071 9965 ft 165 kts 267°
2026-04-25 14:39 10.09107 -65.39233 9978 ft 165 kts 267°
2026-04-25 14:39 10.09058 -65.40397 9978 ft 165 kts 267°
2026-04-25 14:40 10.09008 -65.41565 9975 ft 166 kts 267°
2026-04-25 14:40 10.08957 -65.42732 9973 ft 165 kts 267°
2026-04-25 14:40 10.08905 -65.43896 9974 ft 165 kts 267°
2026-04-25 14:40 10.08857 -65.45050 9969 ft 165 kts 267°
2026-04-25 14:41 10.08803 -65.46214 9967 ft 165 kts 265°
2026-04-25 14:41 10.08755 -65.47373 9971 ft 164 kts 266°
2026-04-25 14:41 10.08685 -65.48533 9971 ft 165 kts 263°
2026-04-25 14:41 10.08597 -65.49698 9969 ft 165 kts 264°
2026-04-25 14:42 10.08515 -65.50862 9973 ft 165 kts 264°
2026-04-25 14:42 10.08489 -65.51237 9972 ft 165 kts 264°
2026-04-25 14:42 10.08353 -65.53169 9973 ft 164 kts 264°
2026-04-25 14:42 10.08268 -65.54336 9970 ft 164 kts 264°
2026-04-25 14:43 10.08185 -65.55495 9970 ft 165 kts 264°
2026-04-25 14:43 10.08100 -65.56653 9971 ft 165 kts 264°
2026-04-25 14:43 10.08014 -65.57813 9971 ft 164 kts 264°
2026-04-25 14:43 10.07930 -65.58956 9970 ft 165 kts 264°
2026-04-25 14:44 10.07847 -65.60116 9970 ft 165 kts 264°
2026-04-25 14:44 10.07760 -65.61271 9970 ft 164 kts 264°
2026-04-25 14:44 10.07673 -65.62427 9969 ft 163 kts 264°
2026-04-25 14:44 10.07587 -65.63579 9971 ft 163 kts 264°
2026-04-25 14:45 10.07504 -65.64727 9967 ft 163 kts 264°
2026-04-25 14:45 10.07423 -65.65875 9974 ft 164 kts 264°
2026-04-25 14:45 10.07338 -65.67031 9972 ft 164 kts 264°
2026-04-25 14:45 10.07254 -65.68188 9969 ft 164 kts 264°
2026-04-25 14:46 10.07172 -65.69328 9971 ft 165 kts 264°
2026-04-25 14:46 10.07089 -65.70495 9972 ft 165 kts 264°
2026-04-25 14:46 10.07021 -65.71654 9973 ft 164 kts 265°
2026-04-25 14:46 10.06956 -65.72808 9973 ft 164 kts 265°
2026-04-25 14:47 10.06894 -65.73963 9972 ft 164 kts 265°
2026-04-25 14:47 10.06872 -65.74353 9970 ft 164 kts 265°
2026-04-25 14:47 10.06765 -65.76272 9968 ft 164 kts 265°
2026-04-25 14:47 10.06698 -65.77429 9973 ft 164 kts 265°
2026-04-25 14:48 10.06633 -65.78584 9972 ft 163 kts 265°
2026-04-25 14:48 10.06569 -65.79734 9969 ft 163 kts 265°
2026-04-25 14:48 10.06504 -65.80883 9974 ft 163 kts 265°
2026-04-25 14:48 10.06438 -65.82037 9973 ft 164 kts 265°
2026-04-25 14:49 10.06372 -65.83191 9973 ft 163 kts 265°
2026-04-25 14:49 10.06309 -65.84343 9969 ft 164 kts 265°
2026-04-25 14:49 10.06248 -65.85499 9973 ft 164 kts 265°
2026-04-25 14:49 10.06184 -65.86655 9972 ft 164 kts 265°
2026-04-25 14:50 10.06120 -65.87809 9973 ft 164 kts 265°
2026-04-25 14:50 10.06058 -65.88965 9973 ft 164 kts 265°
2026-04-25 14:50 10.05993 -65.90120 9972 ft 164 kts 265°
2026-04-25 14:50 10.05921 -65.91274 9975 ft 164 kts 264°
2026-04-25 14:51 10.05837 -65.92426 9974 ft 164 kts 264°
2026-04-25 14:51 10.05755 -65.93581 9972 ft 164 kts 264°
2026-04-25 14:51 10.05670 -65.94736 9970 ft 164 kts 264°
2026-04-25 14:51 10.05585 -65.95881 9975 ft 165 kts 264°
2026-04-25 14:52 10.05498 -65.97058 9965 ft 165 kts 264°
2026-04-25 14:52 10.05411 -65.98203 9970 ft 165 kts 264°
2026-04-25 14:52 10.05325 -65.99361 9966 ft 165 kts 264°
2026-04-25 14:52 10.05298 -65.99752 9974 ft 165 kts 264°
2026-04-25 14:53 10.05157 -66.01679 9974 ft 165 kts 265°
2026-04-25 14:53 10.05075 -66.02840 9973 ft 165 kts 265°
2026-04-25 14:53 10.04993 -66.03998 9969 ft 165 kts 264°
2026-04-25 14:53 10.04911 -66.05158 9974 ft 165 kts 264°
2026-04-25 14:54 10.04829 -66.06319 9975 ft 165 kts 265°
2026-04-25 14:54 10.04745 -66.07485 9978 ft 166 kts 264°
2026-04-25 14:54 10.04662 -66.08651 9981 ft 166 kts 264°
2026-04-25 14:54 10.04580 -66.09819 9978 ft 166 kts 264°
2026-04-25 14:55 10.04500 -66.10985 9977 ft 166 kts 265°
2026-04-25 14:55 10.04420 -66.12154 9980 ft 166 kts 265°
2026-04-25 14:55 10.04365 -66.12932 9984 ft 167 kts 264°
2026-04-25 14:55 10.04253 -66.14494 9984 ft 168 kts 265°
2026-04-25 14:56 10.04166 -66.15677 9986 ft 169 kts 265°
2026-04-25 14:56 10.04080 -66.16864 9984 ft 168 kts 264°
2026-04-25 14:56 10.03995 -66.18045 9982 ft 167 kts 264°
2026-04-25 14:56 10.03937 -66.18837 9982 ft 166 kts 264°
2026-04-25 14:57 10.03853 -66.20002 9982 ft 164 kts 264°
2026-04-25 14:57 10.03772 -66.21153 9979 ft 163 kts 264°
2026-04-25 14:57 10.03692 -66.22305 9978 ft 164 kts 265°
2026-04-25 14:57 10.03615 -66.23460 9983 ft 165 kts 265°
2026-04-25 14:58 10.03534 -66.24604 9980 ft 165 kts 264°
2026-04-25 14:58 10.03451 -66.25764 9987 ft 165 kts 264°
2026-04-25 14:58 10.03371 -66.26927 9988 ft 165 kts 265°
2026-04-25 14:58 10.03405 -66.28090 9981 ft 166 kts 279°
2026-04-25 14:59 10.03676 -66.29233 9983 ft 166 kts 282°
2026-04-25 14:59 10.03908 -66.30383 9983 ft 167 kts 280°
2026-04-25 14:59 10.04139 -66.31532 9988 ft 166 kts 280°
2026-04-25 14:59 10.04370 -66.32678 9983 ft 165 kts 280°
2026-04-25 15:00 10.04600 -66.33821 9981 ft 165 kts 281°
2026-04-25 15:00 10.04829 -66.34961 9983 ft 165 kts 281°
2026-04-25 15:00 10.05056 -66.36095 9983 ft 164 kts 280°
2026-04-25 15:00 10.05286 -66.37233 9986 ft 165 kts 281°
2026-04-25 15:01 10.05513 -66.38372 9978 ft 165 kts 280°
2026-04-25 15:01 10.05744 -66.39521 9981 ft 166 kts 281°
2026-04-25 15:01 10.05974 -66.40667 9985 ft 165 kts 280°
2026-04-25 15:01 10.06204 -66.41808 9991 ft 165 kts 280°
2026-04-25 15:02 10.06431 -66.42944 9989 ft 164 kts 280°
2026-04-25 15:02 10.06665 -66.44081 9980 ft 164 kts 281°
2026-04-25 15:02 10.06891 -66.45196 9995 ft 163 kts 280°
2026-04-25 15:02 10.07121 -66.46329 9989 ft 164 kts 281°
2026-04-25 15:03 10.07294 -66.47481 9992 ft 165 kts 276°
2026-04-25 15:03 10.07460 -66.48633 9986 ft 165 kts 278°
2026-04-25 15:03 10.07687 -66.49782 9987 ft 166 kts 282°
2026-04-25 15:03 10.07946 -66.50930 9998 ft 167 kts 282°
2026-04-25 15:04 10.08200 -66.52080 9995 ft 167 kts 282°
2026-04-25 15:04 10.08452 -66.53231 9994 ft 167 kts 282°
2026-04-25 15:04 10.08703 -66.54379 9998 ft 167 kts 281°
2026-04-25 15:04 10.08954 -66.55527 9988 ft 166 kts 282°
2026-04-25 15:05 10.09205 -66.56670 9999 ft 165 kts 281°
2026-04-25 15:05 10.09448 -66.57785 10000 ft 165 kts 282°
2026-04-25 15:05 10.09699 -66.58922 10000 ft 165 kts 282°
2026-04-25 15:06 10.10191 -66.61178 9998 ft 165 kts 282°
2026-04-25 15:06 10.10441 -66.62319 10000 ft 165 kts 282°
2026-04-25 15:06 10.10691 -66.63460 10002 ft 166 kts 281°
2026-04-25 15:06 10.10942 -66.64606 10000 ft 166 kts 282°
2026-04-25 15:07 10.11192 -66.65752 10004 ft 166 kts 282°
2026-04-25 15:07 10.11442 -66.66892 10004 ft 165 kts 282°
2026-04-25 15:07 10.11692 -66.68033 10000 ft 166 kts 282°
2026-04-25 15:07 10.11942 -66.69179 10011 ft 166 kts 281°
2026-04-25 15:08 10.12192 -66.70323 10007 ft 165 kts 281°
2026-04-25 15:08 10.12442 -66.71463 10003 ft 165 kts 282°
2026-04-25 15:08 10.12660 -66.72592 9979 ft 166 kts 280°
2026-04-25 15:08 10.12844 -66.73752 9980 ft 166 kts 278°
2026-04-25 15:09 10.13121 -66.74886 9972 ft 165 kts 286°
2026-04-25 15:09 10.13428 -66.76018 9802 ft 168 kts 282°
2026-04-25 15:09 10.13928 -66.78345 9453 ft 169 kts 281°
2026-04-25 15:10 10.14183 -66.79511 9277 ft 169 kts 281°
2026-04-25 15:10 10.14438 -66.80667 9106 ft 165 kts 281°
2026-04-25 15:10 10.14922 -66.82891 8746 ft 158 kts 281°
2026-04-25 15:11 10.15157 -66.83978 8572 ft 157 kts 281°
2026-04-25 15:11 10.15396 -66.85048 8396 ft 154 kts 281°
2026-04-25 15:11 10.15627 -66.86097 8222 ft 151 kts 281°
2026-04-25 15:12 10.16072 -66.88136 7880 ft 148 kts 281°
2026-04-25 15:12 10.16294 -66.89153 7710 ft 147 kts 281°
2026-04-25 15:12 10.16515 -66.90168 7540 ft 147 kts 281°
2026-04-25 15:12 10.16591 -66.90512 7488 ft 147 kts 281°
2026-04-25 15:13 10.16958 -66.92188 7206 ft 145 kts 281°
2026-04-25 15:13 10.17388 -66.94156 6854 ft 142 kts 281°
2026-04-25 15:13 10.17596 -66.95102 6660 ft 133 kts 281°
2026-04-25 15:14 10.17793 -66.95997 6467 ft 128 kts 281°
2026-04-25 15:14 10.18019 -66.96865 6250 ft 127 kts 291°
2026-04-25 15:14 10.18591 -66.97531 6044 ft 127 kts 331°
2026-04-25 15:14 10.19410 -66.97741 5914 ft 117 kts 359°
2026-04-25 15:15 10.20195 -66.97814 5909 ft 112 kts 353°
2026-04-25 15:15 10.20957 -66.97922 5911 ft 112 kts 355°
2026-04-25 15:15 10.21739 -66.98020 5911 ft 115 kts 355°
2026-04-25 15:15 10.22526 -66.98139 5910 ft 111 kts 352°
2026-04-25 15:16 10.23257 -66.98274 5911 ft 107 kts 351°
2026-04-25 15:16 10.23993 -66.98397 5921 ft 107 kts 352°
2026-04-25 15:16 10.25522 -66.98627 5920 ft 113 kts
2026-04-25 15:17 10.26696 -66.97661 5684 ft 117 kts 76°
2026-04-25 15:17 10.26768 -66.96856 5504 ft 114 kts 91°
2026-04-25 15:17 10.26831 -66.96072 5308 ft 106 kts 86°
2026-04-25 15:18 10.26921 -66.95389 5131 ft 92 kts 85°
2026-04-25 15:18 10.27119 -66.94150 4859 ft 95 kts 85°
2026-04-25 15:18 10.27209 -66.93480 4703 ft 97 kts 86°
2026-04-25 15:19 10.27307 -66.92814 4532 ft 94 kts 85°
2026-04-25 15:19 10.27381 -66.92387 4424 ft 91 kts 81°
2026-04-25 15:19 10.27558 -66.91567 4202 ft 90 kts 79°
2026-04-25 15:19 10.27711 -66.90941 4002 ft 92 kts 81°
2026-04-25 15:20 10.27835 -66.90290 3809 ft 95 kts 85°
2026-04-25 15:20 10.27915 -66.89635 3670 ft 91 kts 85°
2026-04-25 15:20 10.27995 -66.88991 3519 ft 92 kts 83°
2026-04-25 15:20 10.28096 -66.88351 3412 ft 92 kts 82°
2026-04-25 15:21 10.28195 -66.87707 3329 ft 91 kts 86°
2026-04-25 15:21 10.28309 -66.87065 3163 ft 95 kts 81°
2026-04-25 15:21 10.28441 -66.86408 2985 ft 94 kts 82°
2026-04-25 15:21 10.28573 -66.85767 2832 ft 92 kts 78°
2026-04-25 15:22 10.28684 -66.85137 2705 ft 89 kts 85°
2026-04-25 15:22 10.28781 -66.84511 2560 ft 91 kts 87°
2026-04-25 15:22 10.28859 -66.83898 2426 ft 85 kts 92°
2026-04-25 15:22 10.28816 -66.83288 2360 ft 87 kts 99°
2026-04-25 15:23 10.28764 -66.82688 2220 ft 85 kts 98°
2026-04-25 15:23 10.28728 -66.82153 2159 ft 62 kts 94°
2026-04-25 15:23 10.28717 -66.81926 2160 ft 8 kts 61°
2026-04-25 15:23 10.28761 -66.81918 2156 ft 7 kts 319°
2026-04-25 15:24 10.28768 -66.81952 2159 ft 5 kts 274°
2026-04-25 15:24 10.28770 -66.81988 2159 ft 6 kts 272°
2026-04-25 15:24 10.28772 -66.82034 2159 ft 7 kts 274°
2026-04-25 15:24 10.28773 -66.82051 2159 ft 8 kts 275°
2026-04-25 15:25 10.28802 -66.82121 2158 ft 7 kts
2026-04-25 15:25 10.28853 -66.82116 2158 ft 8 kts 14°
2026-04-25 15:25 10.28866 -66.82081 2159 ft 6 kts 120°
2026-04-25 15:25 10.28848 -66.82078 2159 ft 0 kts 183°
2026-04-25 15:26 10.28846 -66.82078 2158 ft 2 kts 183°
2026-04-25 15:26 10.28828 -66.82056 2155 ft 8 kts 94°
2026-04-25 15:26 10.28823 -66.81998 2159 ft 8 kts 97°
2026-04-25 15:26 10.28819 -66.81941 2159 ft 8 kts 94°
2026-04-25 15:27 10.28844 -66.81912 2156 ft 6 kts
2026-04-25 15:27 10.28887 -66.81909 2159 ft 6 kts
2026-04-25 15:27 10.28979 -66.81903 2157 ft 7 kts
2026-04-25 15:28 10.29000 -66.81876 2158 ft 6 kts 92°
2026-04-25 15:28 10.28994 -66.81848 2154 ft 2 kts 144°
2026-04-25 15:28 10.28984 -66.81847 2156 ft 0 kts 182°
2026-04-25 15:28 10.28983 -66.81847 2156 ft 0 kts 182°